[[{"header":{"parameterUnit":"m.s-1","parameterCategory":1,"la1":30.2992,"la2":30.254,"lo1":-89.0895,"lo2":-89.0443,"dy":0.0025,"dx":0.0025,"nx":19,"ny":19,"refTime":"2026-04-19T09:00:00:Z","depth":0,"parameterNumber":2,"parameterNumberName":"U-component_of_WINDS"},"data":[0,0,0,-3.0827,-3.0833,-3.1114,-3.1115,-3.1499,-3.1502,0,0,0,0,0,0,0,0,0,0,0,-3.0757,-3.076,-3.0827,-3.0834,-3.1114,-3.1115,-3.1498,-3.1502,0,0,0,0,0,0,0,0,0,0,0,-3.0755,-3.0759,-3.0763,-3.0835,-3.1114,-3.1115,-3.1497,-3.1277,0,0,0,0,0,0,0,0,0,0,-3.1001,-3.0948,-3.0758,-3.0763,-3.0837,-3.1114,-3.1115,-3.1266,-3.1291,-3.1382,0,-3.1463,0,-3.1489,-3.1529,-3.1531,0,0,0,-3.0825,-3.0927,-3.0991,-3.0763,-3.0839,-3.1113,-3.0985,-3.128,-3.1308,-3.1414,-3.1468,-3.1482,-3.1495,-3.1532,-3.1534,-3.208,-3.2083,0,0,-3.081,-3.0815,-3.0972,-3.101,-3.0965,-3.0976,-3.0994,-3.1296,-3.1357,-3.147,-3.1491,-3.1501,-3.1535,-3.1538,-3.2077,-3.2081,0,0,0,-3.0771,-3.0804,-3.086,-3.0995,-3.1043,-3.0985,-3.1005,-3.1343,-3.1361,-3.1495,-3.1506,-3.1537,-3.1542,-3.2074,-3.2079,-3.2231,0,0,0,-3.0761,-3.0782,-3.0854,-3.086,-3.1038,-3.1196,-3.1045,-3.134,-3.1374,-3.1504,-3.1537,-3.1546,-3.2071,-3.2077,-3.2219,-3.2303,0,0,0,-3.0734,-3.0778,-3.0823,-3.0859,-3.098,-3.1191,-3.1226,-3.1347,-3.1382,-3.1531,-3.1547,-3.2069,-3.2076,-3.2209,-3.2286,-3.245,0,0,0,-3.0707,-3.0954,-3.0825,-3.1106,-3.0978,-3.1281,-3.1224,-3.145,-3.1597,-3.1539,-3.2071,-3.2078,-3.2206,-3.2276,-3.2439,-3.2589,-3.2651,0,0,-3.1022,-3.0992,-3.1157,-3.105,-3.1378,-3.1238,-3.159,-3.172,-3.173,-3.1964,-3.1977,-3.2223,-3.2285,-3.2447,-3.2995,-3.3045,0,0,0,-3.1259,-3.1377,-3.1463,-3.1602,-3.1705,-3.1802,-3.1877,-3.1926,-3.2123,-3.185,-3.2325,-3.2362,-3.2457,-3.2528,-3.2571,-3.2653,-3.2111,-3.211,-3.2109,-3.1713,-3.1712,-3.1985,-3.2018,-3.2153,-3.2228,-3.2338,-3.2417,-3.2376,-3.2489,-3.2559,-3.2891,-3.2975,-3.3007,-3.3093,-3.2636,-3.2636,-3.2637,-3.2637,-3.2176,-3.2346,-3.2285,-3.2528,-3.2526,-3.2731,-3.2814,-3.2778,-3.2971,-3.2838,-3.2922,-3.2779,-3.3061,-3.3136,-3.2649,-3.2647,-3.2645,-3.2644,-3.2643,-3.2477,-3.2557,-3.261,-3.2811,-3.2966,-3.299,-3.3178,-3.3169,-3.3162,-3.3245,-3.3319,-3.3317,-3.3315,-3.328,-3.3281,-3.3283,-3.3284,-3.3284,-3.3285,-3.2768,-3.2822,-3.298,-3.3111,-3.3199,-3.3315,-3.3392,-3.348,-3.3575,-3.3554,-3.3554,-3.3505,-3.3088,-3.2985,-3.3303,-3.33,-3.3298,-3.3296,-3.3295,-3.3243,-3.3134,-3.3378,-3.3466,-3.362,-3.3776,-3.376,-3.394,-3.4011,-3.4104,-3.4036,-3.3728,-3.3698,-3.3665,-3.358,-3.4034,-3.4034,-3.4034,-3.4034,-3.3498,-3.348,-3.3729,-3.3871,-3.4009,-3.402,-3.4299,-3.4362,-3.4411,-3.4456,-3.4388,-3.4273,-3.4239,-3.423,-3.4184,-3.4105,-3.4682,-3.4682,-3.4683,-3.3791,-3.3786,-3.4025,-3.4068,-3.4188,-3.4291,-3.4554,-3.4722,-3.4754,-3.4709,-3.4491,-3.4464,-3.4278,-3.4217,-3.4169,-3.4098,-3.3952,0,0]},{"header":{"parameterUnit":"m.s-1","parameterCategory":1,"la1":30.2992,"la2":30.254,"lo1":-89.0895,"lo2":-89.0443,"dy":0.0025,"dx":0.0025,"nx":19,"ny":19,"refTime":"2026-04-19T09:00:00:Z","depth":0,"parameterNumber":3,"parameterNumberName":"V-component_of_WINDS"},"data":[0,0,0,-1.9971,-1.9971,-1.9987,-1.9987,-2.0003,-2.0003,0,0,0,0,0,0,0,0,0,0,0,-1.9965,-1.9965,-1.9971,-1.9971,-1.9987,-1.9987,-2.0003,-2.0003,0,0,0,0,0,0,0,0,0,0,0,-1.9965,-1.9965,-1.9965,-1.9971,-1.9987,-1.9987,-2.0003,-1.9992,0,0,0,0,0,0,0,0,0,0,-1.9977,-1.9972,-1.9965,-1.9965,-1.9971,-1.9987,-1.9987,-1.9992,-1.9993,-1.9995,0,-1.9998,0,-2.0001,-2.0004,-2.0004,0,0,0,-1.9971,-1.9971,-1.9976,-1.9965,-1.9971,-1.9987,-1.998,-1.9993,-1.9994,-1.9996,-1.9998,-1.9999,-2.0001,-2.0005,-2.0005,-2.0016,-2.0016,0,0,-1.997,-1.9967,-1.9975,-1.9977,-1.9976,-1.9979,-1.998,-1.9993,-1.9994,-1.9998,-1.9999,-2.0001,-2.0005,-2.0005,-2.0016,-2.0016,0,0,0,-1.9968,-1.9967,-1.9972,-1.9976,-1.9979,-1.998,-1.9981,-1.9994,-1.9996,-1.9999,-2.0002,-2.0005,-2.0005,-2.0016,-2.0016,-2.0015,0,0,0,-1.9967,-1.9965,-1.9971,-1.9969,-1.9979,-1.9987,-1.9981,-1.9995,-1.9996,-2.0002,-2.0005,-2.0005,-2.0016,-2.0016,-2.0015,-2.0015,0,0,0,-1.9964,-1.9965,-1.9967,-1.9969,-1.9976,-1.9987,-1.999,-1.9995,-1.9998,-2.0004,-2.0005,-2.0016,-2.0016,-2.0015,-2.0015,-2.0016,0,0,0,-1.996,-1.9966,-1.9967,-1.9974,-1.9976,-1.9987,-1.999,-1.9998,-2.0003,-2.0005,-2.0016,-2.0016,-2.0015,-2.0015,-2.0016,-2.0017,-2.0017,0,0,-1.9966,-1.9967,-1.9971,-1.9972,-1.9982,-1.9985,-1.9994,-2.0001,-2.0004,-2.0012,-2.0012,-2.0015,-2.0015,-2.0016,-2.0019,-2.0019,0,0,0,-1.9972,-1.9975,-1.9978,-1.9984,-1.999,-1.9995,-2.0002,-2.0004,-2.001,-2.0008,-2.0016,-2.0016,-2.0017,-2.0017,-2.0018,-2.0018,-2.0016,-2.0016,-2.0016,-1.9977,-1.998,-1.9987,-1.9991,-1.9996,-2.0002,-2.0006,-2.001,-2.0012,-2.0014,-2.0016,-2.0018,-2.0018,-2.0018,-2.0018,-2.0017,-2.0017,-2.0017,-2.0017,-1.9985,-1.9989,-1.9991,-1.9998,-2.0001,-2.0006,-2.0011,-2.0012,-2.0017,-2.0017,-2.0018,-2.0017,-2.0018,-2.0018,-2.0017,-2.0017,-2.0017,-2.0017,-2.0017,-1.9988,-1.999,-1.9993,-2.0,-2.0004,-2.0008,-2.0012,-2.0014,-2.0016,-2.0017,-2.0019,-2.0019,-2.0018,-2.0018,-2.0018,-2.0018,-2.0018,-2.0018,-2.0018,-1.9989,-1.9992,-1.9996,-2.0001,-2.0004,-2.0008,-2.0012,-2.0014,-2.0017,-2.0018,-2.0018,-2.0019,-2.0018,-2.0017,-2.0018,-2.0018,-2.0018,-2.0018,-2.0018,-1.9996,-1.9994,-2.0,-2.0002,-2.0007,-2.001,-2.0013,-2.0017,-2.0019,-2.002,-2.0021,-2.002,-2.002,-2.002,-2.002,-2.0021,-2.0021,-2.0021,-2.0021,-1.9997,-1.9998,-2.0003,-2.0006,-2.001,-2.0012,-2.0016,-2.0019,-2.0021,-2.0022,-2.0022,-2.0021,-2.0021,-2.0022,-2.0022,-2.0021,-2.0023,-2.0023,-2.0023,-2.0001,-2.0001,-2.0005,-2.0008,-2.0012,-2.0014,-2.0017,-2.002,-2.0022,-2.0023,-2.0022,-2.0022,-2.0021,-2.0021,-2.0022,-2.0022,-2.0021,0,0]}]]